Regional Weather Roundup
Issued by NWS New Orleans/Baton Rouge, LA

Home | Current Version | Previous Version | Graphics & Text | Print | Product List | Glossary On
Versions: 1 2 3 4 5 6 7 8 9 10 11 12 13 14 15 16 17 18 19 20 21 22 23 24 25 26 27 28 29 30 31 32 33 34 35 36 37 38 39 40 41 42 43 44 45 46 47 48 49 50
060
ASUS44 KLIX 231005
RWRLIX
NEW ORLEANS REGIONAL WEATHER ROUNDUP
NATIONAL WEATHER SERVICE NEW ORLEANS LA
500 AM CDT SAT AUG 23 2014

NOTE: "FAIR" INDICATES FEW OR NO CLOUDS BELOW 12,000 FEET WITH NO
      SIGNIFICANT WEATHER AND/OR OBSTRUCTIONS TO VISIBILITY.
      SKY/WX - SKY CONDITION AND SIGNIFICANT WEATHER.
      TMP - AIR TEMPERATURE.     DP    - DEWPOINT TEMPERATURE.
      RH  - RELATIVE HUMIDITY.   PRES  - PRESSURE.
      HI  - HEAT INDEX.          WCI   - WIND CHILL INDEX.

*  THESE STATIONS ARE NOT NWS OR FAA STATIONS AND ARE NOT UNDER
   NWS QUALITY CONTROL.

LAZ038-040-048-061>063-065>067-069-231100-
SOUTHEAST LOUISIANA

CITY           SKY/WX    TMP DP  RH WIND       PRES   REMARKS
N.O. AUDUBON     N/A     80  78  95 MISG        N/A
N.O. INTL ARPT PTCLDY    79  76  90 W3        30.01R
N.O. LAKEFRONT CLEAR     84  78  82 W12       30.01R HX  95
N.O. DOWNTOWN*   N/A     82  73  74 CALM      30.01S
SLIDELL        CLEAR     76  73  91 CALM      30.00R
BATON ROUGE    CLEAR     77  74  90 CALM      30.02R
BOOTHVILLE     CLEAR     82  78  88 NW3       30.01R
BELLE CHASSE   CLEAR     78  74  87 CALM      30.00S
BOGALUSA*        N/A     76  73  88 CALM      30.03R
GALLIANO*      NOT AVBL
NEW ROADS*       N/A     75  74  98 CALM      30.02R FOG
GONZALES*        N/A     77  77 100 CALM      30.00S
HAMMOND*       CLEAR     77  73  88 CALM      30.03R
HOUMA*         CLEAR     76  73  91 CALM      30.00S FOG
PORT FOURCHON* SUNNY     84  75  74 CALM      30.02S

$$

MSZ070-080>082-231100-
SOUTHERN MISSISSIPPI

CITY           SKY/WX    TMP DP  RH WIND       PRES   REMARKS
MCCOMB         CLEAR     75  72  90 CALM      30.03R
GULFPORT       CLEAR     79  75  87 NW3       29.99R
BILOXI         CLEAR     82  77  83 VRB1      30.00R
PASCAGOULA     CLEAR     76  75  97 CALM      30.00R FOG

$$

COASTAL OBSERVATIONS
LAKE AND NEARSHORE STATIONS

STATION/POSITION TIME  TEMP    WIND        PRES    WAVE
                       AIR SEA DIR/SP/G            HT/PER
                 (UTC) (F)     (DEG/KT/KT) (MB)    (FT/S)
PASCAGOULA       1000   84     290/  4/  5 1015.2
WAVELAND YACHT   1000   81     300/  4/  5 1015.2
GRAND ISLE       1000   86 90  300/  7/  8 1016.5
SOUTHWEST PASS   1000   84 88  290/  4/  5 1016.2
NEW CANAL        1000   83 85  260/  5/  7 1016.5
SHELL BEACH      1000   82 82  260/  7/  8 1015.8

OFFSHORE STATIONS

STATION/POSITION TIME  TEMP    WIND        PRES    WAVE
                       AIR SEA DIR/SP/G            HT/PER
                 (UTC) (F)     (DEG/KT/KT) (MB)    (FT/S)
64 S DAUPHIN ISL 0942   86 88  280/  8/ 10 1015.9

$$




USA.gov is the U.S. government's official web portal to all federal, state and local government web resources and services.